Regional Weather Roundup
Issued by NWS Cleveland, OH

Home | Current Version | Previous Version | Text Only | Print | Product List | Glossary Off
Versions: 1 2 3 4 5 6 7 8 9 10 11 12 13 14 15 16 17 18 19 20 21 22 23 24 25 26 27 28 29 30 31 32 33 34 35 36 37 38 39 40 41 42 43 44 45 46 47 48 49 50

000
ASUS41 KCLE 060210
RWRCLE
OHIO REGIONAL WEATHER ROUNDUP
NATIONAL WEATHER SERVICE CLEVELAND, OH
900 PM EST THU MAR 05 2015

NOTE: "FAIR" INDICATES FEW OR NO CLOUDS BELOW 12,000 FEET WITH NO
SIGNIFICANT WEATHER AND/OR OBSTRUCTIONS TO VISIBILITY.

OHZ001>008-015>018-024>027-034-035-043-044-060300-
   NORTHWEST OHIO

CITY           SKY/WX    TMP DP  RH WIND       PRES   REMARKS
DEFIANCE       CLEAR      9   1  70 CALM      30.51R
FINDLAY        CLEAR     11   2  67 CALM      30.49R
TOLEDO EXPRESS CLEAR      7  -1  70 CALM      30.50R
TOLEDO EXEC    CLEAR     13   1  59 SW3       30.52R
LIMA           CLEAR     14   4  64 CALM      30.49R
$$

OHZ009>014-019>023-028>033-038-089-060300-
   NORTHEAST OHIO

CITY           SKY/WX    TMP DP  RH WIND       PRES   REMARKS
CLE-HOPKINS    CLEAR     10   0  63 S3        30.52R
CLE-LAKEFRONT  CLEAR     13   3  64 CALM      30.51R
CUY CO. ARPT   CLEAR     10   3  72 CALM      30.49R
LORAIN-ELYRIA  CLEAR      8  -1  66 SW6       30.49S WCI  -2
ASHTABULA      PTCLDY     1  -6  72 CALM      30.49R
AKRON-CANTON   CLEAR      9  -2  61 W3        30.46R
WOOSTER        CLEAR      2  -3  80 CALM      30.47S
MANSFIELD      CLOUDY     8   3  80 CALM      30.45S
YOUNGSTOWN     PTCLDY     5  -3  69 CALM      30.46R
$$

OHZ042-051>053-060>062-070>072-077>081-060300-
  SOUTHWEST OHIO

CITY           SKY/WX    TMP DP  RH WIND       PRES   REMARKS
CINC-COVINGTON CLEAR     17   4  56 N6        30.51R WCI   9
CINC-LUNKEN    CLEAR     16   7  67 N3        30.57R
HAMILTON       CLEAR     10   5  80 N3        30.55R
DAYTON         CLEAR     16   5  62 NW3       30.51R
WRIGHT-PAT AFB CLEAR     15   6  66 CALM      30.51R
DAYTON GENERAL CLEAR     16   3  56 N5        30.50R WCI   9
WILMINGTON     CLEAR     12   2  64 N3        30.49S
$$

OHZ036-037-039>041-045>050-054>059-063>069-073>076-082>088-060300-
  CENTRAL AND SOUTHEAST OHIO

CITY           SKY/WX    TMP DP  RH WIND       PRES   REMARKS
COLUMBUS       CLEAR     15   3  59 N7        30.51R WCI   5
OSU AIRPORT    CLEAR     14   2  58 CALM      30.50R
BOLTON FIELD   CLEAR    N/A N/A N/A CALM      30.51S
RICKENBACK AFB CLEAR     15   2  56 N5        30.51S WCI   7
NEWARK         CLEAR     12   3  67 CALM      30.49S
MARION         FAIR       9  -1  64 CALM      30.49R
LANCASTER      CLEAR      7   3  84 CALM      30.51R
ZANESVILLE     CLEAR     11   1  64 NW6       30.49R WCI   1
NEW PHILLY     CLEAR     14   1  56 N3        30.50R
$$



USA.gov is the U.S. government's official web portal to all federal, state and local government web resources and services.